| time (UTC) | temp F | wind direction | speed MPH | gust MPH | rain 1hr in | rain 24hr in | rain mn in | humidity % | barometer mb |
| 20260902043526 | 78 | 116 | 0.0 | 0.0 | 0.00 | 0.02 | 0.00 | 100 | 1014.7 |
| 20260902043051 | 78 | 116 | 0.0 | 0.0 | 0.00 | 0.02 | 0.00 | 100 | 1014.8 |
| 20260902042527 | 78 | 116 | 0.0 | 0.0 | 0.00 | 0.02 | 0.00 | 100 | 1014.8 |
| 20260902042023 | 78 | 116 | 0.0 | 0.0 | 0.00 | 0.02 | 0.00 | 100 | 1014.8 |
| 20260902041539 | 78 | 116 | 0.0 | 0.0 | 0.00 | 0.02 | 0.00 | 100 | 1014.8 |
| 20260902041034 | 78 | 116 | 0.0 | 0.0 | 0.00 | 0.02 | 0.00 | 100 | 1014.8 |
| 20260902040528 | 78 | 116 | 0.0 | 0.0 | 0.00 | 0.02 | 0.00 | 100 | 1014.8 |
| 20260902040022 | 78 | 116 | 0.0 | 0.0 | 0.00 | 0.02 | 0.02 | 100 | 1014.9 |
| 20260902035531 | 78 | 116 | 0.0 | 0.0 | 0.00 | 0.02 | 0.02 | 100 | 1014.9 |
| 20260902035027 | 79 | 116 | 0.0 | 0.0 | 0.00 | 0.02 | 0.02 | 100 | 1014.9 |
| 20260902034523 | 79 | 117 | 0.0 | 0.0 | 0.00 | 0.02 | 0.02 | 100 | 1015.0 |
| 20260902034032 | 79 | 116 | 0.0 | 0.0 | 0.00 | 0.02 | 0.02 | 100 | 1015.0 |
| 20260902033529 | 79 | 116 | 0.0 | 0.0 | 0.00 | 0.02 | 0.02 | 100 | 1015.0 |
| 20260902033026 | 79 | 116 | 0.0 | 0.0 | 0.00 | 0.02 | 0.02 | 99 | 1015.3 |
| 20260902032534 | 79 | 116 | 0.0 | 0.0 | 0.00 | 0.02 | 0.02 | 99 | 1015.3 |
| 20260902032028 | 79 | 116 | 0.0 | 0.0 | 0.00 | 0.02 | 0.02 | 99 | 1015.3 |
| 20260902031556 | 79 | 116 | 0.0 | 0.0 | 0.00 | 0.02 | 0.02 | 99 | 1015.3 |
| 20260902031031 | 79 | 116 | 0.0 | 0.0 | 0.00 | 0.02 | 0.02 | 99 | 1015.3 |
| 20260902030527 | 79 | 116 | 0.0 | 0.0 | 0.00 | 0.02 | 0.02 | 99 | 1015.3 |
| 20260902030026 | 79 | 116 | 0.0 | 0.0 | 0.00 | 0.02 | 0.02 | 98 | 1015.4 |
| 20260902025556 | 79 | 116 | 0.0 | 0.0 | 0.00 | 0.02 | 0.02 | 98 | 1015.4 |
| 20260902025030 | 79 | 116 | 0.0 | 0.0 | 0.00 | 0.02 | 0.02 | 98 | 1015.4 |
| 20260902024526 | 79 | 116 | 0.0 | 0.0 | 0.00 | 0.02 | 0.02 | 98 | 1015.5 |
| 20260902024034 | 79 | 116 | 0.0 | 0.0 | 0.00 | 0.02 | 0.02 | 97 | 1015.5 |
| 20260902023528 | 79 | 116 | 0.0 | 0.0 | 0.00 | 0.02 | 0.02 | 97 | 1015.5 |
| 20260902023022 | 79 | 116 | 0.0 | 0.0 | 0.00 | 0.02 | 0.02 | 96 | 1015.4 |
| 20260902022554 | 79 | 116 | 0.0 | 0.0 | 0.00 | 0.02 | 0.02 | 96 | 1015.4 |
| 20260902022022 | 79 | 116 | 0.0 | 0.0 | 0.00 | 0.02 | 0.02 | 96 | 1015.4 |
| 20260902021532 | 79 | 116 | 0.0 | 0.0 | 0.00 | 0.02 | 0.02 | 95 | 1015.3 |
| 20260902021048 | 79 | 116 | 0.0 | 0.0 | 0.00 | 0.02 | 0.02 | 94 | 1015.3 |
| 20260902020523 | 79 | 116 | 0.0 | 0.0 | 0.00 | 0.02 | 0.02 | 94 | 1015.3 |
| 20260902020031 | 79 | 116 | 0.0 | 0.0 | 0.00 | 0.02 | 0.02 | 93 | 1015.3 |
| 20260902015549 | 79 | 116 | 0.0 | 0.0 | 0.00 | 0.02 | 0.02 | 92 | 1015.3 |
| 20260902015035 | 79 | 116 | 0.0 | 0.0 | 0.00 | 0.02 | 0.02 | 92 | 1015.3 |
| 20260902014531 | 79 | 116 | 0.0 | 0.0 | 0.00 | 0.02 | 0.02 | 92 | 1015.1 |
| 20260902014028 | 79 | 116 | 0.0 | 0.0 | 0.00 | 0.02 | 0.02 | 91 | 1015.1 |
| 20260902013526 | 79 | 116 | 0.0 | 0.0 | 0.00 | 0.02 | 0.02 | 90 | 1015.1 |
| 20260902013055 | 79 | 116 | 0.0 | 0.0 | 0.00 | 0.02 | 0.02 | 90 | 1015.0 |
| 20260902012530 | 79 | 117 | 0.0 | 0.0 | 0.00 | 0.02 | 0.02 | 89 | 1015.0 |
| 20260902012027 | 79 | 117 | 0.0 | 0.0 | 0.00 | 0.02 | 0.02 | 88 | 1015.0 |
| 20260902011535 | 80 | 116 | 0.0 | 0.0 | 0.00 | 0.02 | 0.02 | 88 | 1014.8 |
| 20260902011031 | 80 | 117 | 0.0 | 0.0 | 0.00 | 0.02 | 0.02 | 87 | 1014.8 |
| 20260902010529 | 80 | 116 | 0.0 | 0.0 | 0.00 | 0.02 | 0.02 | 87 | 1014.8 |
| 20260902010035 | 80 | 117 | 0.0 | 0.0 | 0.00 | 0.02 | 0.02 | 87 | 1014.8 |
| 20260902005551 | 80 | 117 | 0.0 | 0.0 | 0.00 | 0.02 | 0.02 | 86 | 1014.8 |
| 20260902005026 | 80 | 116 | 0.0 | 1.0 | 0.00 | 0.02 | 0.02 | 86 | 1014.8 |
| 20260902004522 | 81 | 117 | 0.0 | 1.0 | 0.00 | 0.02 | 0.02 | 85 | 1015.0 |
| 20260902004034 | 81 | 117 | 0.0 | 1.0 | 0.00 | 0.02 | 0.02 | 85 | 1015.0 |
| 20260902003525 | 81 | 117 | 0.0 | 1.0 | 0.00 | 0.02 | 0.02 | 84 | 1015.0 |
| 20260902003033 | 81 | 117 | 0.0 | 2.0 | 0.00 | 0.02 | 0.02 | 83 | 1015.0 |
| 20260902002528 | 81 | 117 | 0.0 | 5.0 | 0.00 | 0.02 | 0.02 | 83 | 1015.0 |
| 20260902002023 | 81 | 117 | 2.0 | 5.0 | 0.00 | 0.02 | 0.02 | 82 | 1015.0 |
| 20260902001522 | 82 | 72 | 1.0 | 4.0 | 0.00 | 0.02 | 0.02 | 82 | 1015.0 |
| 20260902001033 | 82 | 89 | 2.0 | 4.0 | 0.00 | 0.02 | 0.02 | 81 | 1015.0 |
| 20260902000528 | 82 | 103 | 0.0 | 3.0 | 0.00 | 0.02 | 0.02 | 81 | 1015.0 |
| 20260902000023 | 82 | 44 | 0.0 | 6.0 | 0.00 | 0.02 | 0.02 | 81 | 1014.9 |
| 20260901235531 | 82 | 63 | 3.0 | 6.0 | 0.00 | 0.02 | 0.02 | 83 | 1014.9 |
| 20260901235025 | 82 | 49 | 0.0 | 2.0 | 0.00 | 0.02 | 0.02 | 84 | 1014.9 |
| 20260901234533 | 82 | 49 | 0.0 | 2.0 | 0.00 | 0.02 | 0.02 | 83 | 1014.8 |
| 20260901234027 | 82 | 49 | 0.0 | 4.0 | 0.00 | 0.02 | 0.02 | 83 | 1014.8 |
| 20260901233526 | 82 | 41 | 0.0 | 2.0 | 0.00 | 0.02 | 0.02 | 83 | 1014.8 |
| 20260901233023 | 83 | 42 | 1.0 | 2.0 | 0.00 | 0.02 | 0.02 | 82 | 1014.8 |
| 20260901232531 | 83 | 2 | 0.0 | 3.0 | 0.00 | 0.02 | 0.02 | 83 | 1014.8 |
| 20260901232027 | 83 | 29 | 1.0 | 3.0 | 0.00 | 0.02 | 0.02 | 84 | 1014.8 |
| 20260901231523 | 83 | 26 | 1.0 | 3.0 | 0.00 | 0.02 | 0.02 | 83 | 1014.6 |
| 20260901231037 | 83 | 31 | 0.0 | 3.0 | 0.00 | 0.02 | 0.02 | 83 | 1014.6 |
| 20260901230553 | 83 | 2 | 1.0 | 4.0 | 0.00 | 0.02 | 0.02 | 83 | 1014.6 |
| 20260901230027 | 83 | 37 | 1.0 | 4.0 | 0.00 | 0.02 | 0.02 | 83 | 1014.6 |
| 20260901225534 | 83 | 27 | 1.0 | 2.0 | 0.00 | 0.02 | 0.02 | 83 | 1014.6 |
| 20260901225031 | 83 | 22 | 1.0 | 2.0 | 0.00 | 0.02 | 0.02 | 82 | 1014.6 |
| 20260901224526 | 83 | 30 | 2.0 | 5.0 | 0.00 | 0.02 | 0.02 | 82 | 1014.5 |
| 20260901224036 | 83 | 23 | 1.0 | 5.0 | 0.00 | 0.02 | 0.02 | 81 | 1014.5 |
| 20260901223531 | 83 | 58 | 1.0 | 3.0 | 0.00 | 0.02 | 0.02 | 81 | 1014.5 |
| 20260901223026 | 83 | 22 | 1.0 | 4.0 | 0.00 | 0.02 | 0.02 | 81 | 1014.5 |
| 20260901222522 | 83 | 41 | 1.0 | 4.0 | 0.00 | 0.02 | 0.02 | 80 | 1014.5 |
| 20260901222037 | 84 | 354 | 1.0 | 4.0 | 0.00 | 0.02 | 0.02 | 80 | 1014.5 |
| 20260901221534 | 84 | 34 | 2.0 | 4.0 | 0.00 | 0.02 | 0.02 | 79 | 1014.4 |
| 20260901221029 | 84 | 354 | 1.0 | 4.0 | 0.00 | 0.02 | 0.02 | 79 | 1014.4 |
| 20260901220536 | 84 | 68 | 2.0 | 7.0 | 0.00 | 0.02 | 0.02 | 79 | 1014.4 |
| 20260901220049 | 84 | 19 | 3.0 | 7.0 | 0.00 | 0.02 | 0.02 | 79 | 1014.2 |
| 20260901215524 | 84 | 49 | 2.0 | 5.0 | 0.00 | 0.02 | 0.02 | 79 | 1014.2 |
| 20260901215054 | 84 | 28 | 2.0 | 5.0 | 0.00 | 0.02 | 0.02 | 79 | 1014.2 |
| 20260901214528 | 84 | 32 | 2.0 | 9.0 | 0.00 | 0.02 | 0.02 | 79 | 1014.0 |
| 20260901214024 | 84 | 41 | 3.0 | 11.0 | 0.00 | 0.02 | 0.02 | 79 | 1014.0 |
| 20260901213534 | 85 | 42 | 2.0 | 10.0 | 0.00 | 0.02 | 0.02 | 78 | 1014.0 |
| 20260901213029 | 85 | 45 | 2.0 | 13.0 | 0.00 | 0.02 | 0.02 | 78 | 1013.9 |
| 20260901212522 | 85 | 18 | 2.0 | 13.0 | 0.00 | 0.02 | 0.02 | 77 | 1013.9 |
| 20260901212030 | 85 | 45 | 3.0 | 7.0 | 0.00 | 0.02 | 0.02 | 76 | 1013.9 |
| 20260901211526 | 85 | 360 | 2.0 | 6.0 | 0.00 | 0.02 | 0.02 | 75 | 1014.3 |
| 20260901211040 | 86 | 57 | 3.0 | 6.0 | 0.00 | 0.02 | 0.02 | 74 | 1014.3 |
| 20260901210531 | 86 | 32 | 2.0 | 6.0 | 0.00 | 0.02 | 0.02 | 72 | 1014.3 |
| 20260901210025 | 87 | 48 | 3.0 | 6.0 | 0.00 | 0.02 | 0.02 | 71 | 1014.2 |
| 20260901205535 | 87 | 1 | 3.0 | 6.0 | 0.00 | 0.02 | 0.02 | 67 | 1014.2 |
| 20260901205030 | 88 | 47 | 4.0 | 10.0 | 0.00 | 0.02 | 0.02 | 70 | 1014.2 |
| 20260901204527 | 88 | 33 | 3.0 | 10.0 | 0.00 | 0.02 | 0.02 | 69 | 1014.3 |
| 20260901204036 | 88 | 20 | 4.0 | 9.0 | 0.00 | 0.02 | 0.02 | 68 | 1014.3 |
| 20260901203533 | 88 | 24 | 3.0 | 9.0 | 0.00 | 0.02 | 0.02 | 68 | 1014.3 |
| 20260901203029 | 88 | 20 | 4.0 | 9.0 | 0.00 | 0.02 | 0.02 | 70 | 1014.3 |
| 20260901202525 | 87 | 359 | 1.0 | 6.0 | 0.00 | 0.02 | 0.02 | 72 | 1014.3 |
| 20260901202100 | 87 | 33 | 2.0 | 6.0 | 0.00 | 0.02 | 0.02 | 71 | 1014.3 |
| 20260901201532 | 87 | 39 | 2.0 | 6.0 | 0.00 | 0.02 | 0.02 | 71 | 1014.7 |
| 20260901201047 | 88 | 51 | 3.0 | 6.0 | 0.00 | 0.02 | 0.02 | 71 | 1014.7 |
| 20260901200530 | 88 | 25 | 2.0 | 7.0 | 0.00 | 0.02 | 0.02 | 70 | 1014.7 |
| 20260901200046 | 88 | 46 | 2.0 | 8.0 | 0.00 | 0.02 | 0.02 | 69 | 1014.7 |
| 20260901195524 | 88 | 50 | 2.0 | 8.0 | 0.00 | 0.02 | 0.02 | 68 | 1014.7 |
| 20260901195033 | 89 | 58 | 2.0 | 6.0 | 0.00 | 0.02 | 0.02 | 68 | 1014.7 |
| 20260901194529 | 89 | 60 | 2.0 | 6.0 | 0.00 | 0.02 | 0.02 | 68 | 1014.7 |
| 20260901194025 | 90 | 36 | 2.0 | 7.0 | 0.00 | 0.02 | 0.02 | 67 | 1014.7 |
| 20260901193521 | 90 | 49 | 2.0 | 7.0 | 0.00 | 0.02 | 0.02 | 68 | 1014.7 |
| 20260901193050 | 89 | 37 | 1.0 | 6.0 | 0.00 | 0.02 | 0.02 | 68 | 1014.7 |
| 20260901192526 | 89 | 30 | 1.0 | 7.0 | 0.00 | 0.02 | 0.02 | 67 | 1014.7 |
| 20260901192023 | 89 | 25 | 2.0 | 7.0 | 0.00 | 0.02 | 0.02 | 68 | 1014.7 |
| 20260901191530 | 90 | 21 | 3.0 | 6.0 | 0.00 | 0.02 | 0.02 | 66 | 1014.8 |
| 20260901191027 | 90 | 47 | 3.0 | 5.0 | 0.00 | 0.02 | 0.02 | 66 | 1014.8 |
| 20260901190523 | 90 | 52 | 2.0 | 6.0 | 0.00 | 0.02 | 0.02 | 66 | 1014.8 |
| 20260901190035 | 90 | 4 | 1.0 | 9.0 | 0.00 | 0.02 | 0.02 | 67 | 1014.9 |
| 20260901185533 | 90 | 32 | 3.0 | 9.0 | 0.00 | 0.02 | 0.02 | 66 | 1014.9 |
| 20260901185029 | 90 | 38 | 4.0 | 7.0 | 0.00 | 0.02 | 0.02 | 66 | 1014.9 |
| 20260901184558 | 90 | 54 | 2.0 | 8.0 | 0.00 | 0.02 | 0.02 | 66 | 1015.3 |
| 20260901184034 | 90 | 63 | 2.0 | 8.0 | 0.00 | 0.02 | 0.02 | 65 | 1015.3 |
| 20260901183527 | 91 | 1 | 2.0 | 11.0 | 0.00 | 0.02 | 0.02 | 67 | 1015.3 |
| 20260901183036 | 91 | 12 | 3.0 | 9.0 | 0.00 | 0.02 | 0.02 | 67 | 1015.3 |
| 20260901182553 | 90 | 25 | 2.0 | 10.0 | 0.00 | 0.02 | 0.02 | 68 | 1015.3 |
| 20260901182049 | 91 | 360 | 3.0 | 10.0 | 0.00 | 0.02 | 0.02 | 67 | 1015.3 |
| 20260901181551 | 90 | 352 | 2.0 | 7.0 | 0.00 | 0.02 | 0.02 | 68 | 1015.3 |
| 20260901181026 | 90 | 30 | 1.0 | 7.0 | 0.00 | 0.02 | 0.02 | 69 | 1015.3 |
| 20260901180543 | 90 | 46 | 3.0 | 11.0 | 0.00 | 0.02 | 0.02 | 69 | 1015.3 |
| 20260901180051 | 90 | 27 | 4.0 | 12.0 | 0.00 | 0.02 | 0.02 | 70 | 1015.6 |
| 20260901175548 | 90 | 1 | 2.0 | 12.0 | 0.00 | 0.02 | 0.02 | 69 | 1015.6 |
| 20260901175034 | 90 | 22 | 3.0 | 7.0 | 0.00 | 0.02 | 0.02 | 70 | 1015.6 |
| 20260901174531 | 89 | 41 | 3.0 | 10.0 | 0.00 | 0.02 | 0.02 | 71 | 1015.9 |
| 20260901174027 | 89 | 16 | 3.0 | 11.0 | 0.00 | 0.02 | 0.02 | 72 | 1015.9 |
| 20260901173536 | 89 | 35 | 3.0 | 11.0 | 0.00 | 0.02 | 0.02 | 71 | 1015.9 |
| 20260901173032 | 89 | 26 | 2.0 | 8.0 | 0.00 | 0.02 | 0.02 | 70 | 1015.9 |
| 20260901172548 | 89 | 23 | 1.0 | 6.0 | 0.00 | 0.02 | 0.02 | 71 | 1015.9 |
| 20260901172056 | 89 | 30 | 2.0 | 7.0 | 0.00 | 0.02 | 0.02 | 74 | 1015.9 |
| 20260901171531 | 88 | 49 | 3.0 | 7.0 | 0.00 | 0.02 | 0.02 | 73 | 1015.9 |
| 20260901171027 | 88 | 32 | 1.0 | 6.0 | 0.00 | 0.02 | 0.02 | 73 | 1015.9 |
| 20260901170555 | 88 | 36 | 2.0 | 7.0 | 0.00 | 0.02 | 0.02 | 74 | 1015.9 |
| 20260901170031 | 88 | 30 | 2.0 | 6.0 | 0.00 | 0.02 | 0.02 | 76 | 1016.2 |
| 20260901165542 | 88 | 21 | 2.0 | 6.0 | 0.00 | 0.02 | 0.02 | 75 | 1016.2 |
| 20260901165029 | 88 | 34 | 2.0 | 7.0 | 0.00 | 0.02 | 0.02 | 76 | 1016.2 |
| 20260901164525 | 87 | 35 | 2.0 | 7.0 | 0.00 | 0.02 | 0.02 | 74 | 1016.3 |
| 20260901164022 | 87 | 19 | 2.0 | 7.0 | 0.00 | 0.02 | 0.02 | 77 | 1016.3 |
| 20260901163531 | 87 | 50 | 3.0 | 6.0 | 0.00 | 0.02 | 0.02 | 75 | 1016.3 |
| 20260901163047 | 87 | 39 | 3.0 | 6.0 | 0.00 | 0.02 | 0.02 | 75 | 1016.3 |
| 20260901162534 | 87 | 37 | 2.0 | 5.0 | 0.00 | 0.02 | 0.02 | 76 | 1016.3 |
| 20260901162030 | 86 | 20 | 3.0 | 7.0 | 0.00 | 0.02 | 0.02 | 77 | 1016.3 |
| 20260901161525 | 86 | 288 | 2.0 | 9.0 | 0.00 | 0.02 | 0.02 | 77 | 1016.3 |
| 20260901161033 | 86 | 41 | 4.0 | 9.0 | 0.00 | 0.02 | 0.02 | 77 | 1016.3 |
| 20260901160529 | 86 | 38 | 2.0 | 7.0 | 0.00 | 0.02 | 0.02 | 81 | 1016.3 |
| 20260901160024 | 85 | 29 | 3.0 | 7.0 | 0.00 | 0.02 | 0.02 | 80 | 1016.4 |
| 20260901155535 | 85 | 23 | 3.0 | 6.0 | 0.00 | 0.02 | 0.02 | 81 | 1016.4 |
| 20260901155048 | 85 | 1 | 3.0 | 6.0 | 0.00 | 0.02 | 0.02 | 81 | 1016.4 |
| 20260901154536 | 85 | 17 | 2.0 | 7.0 | 0.00 | 0.02 | 0.02 | 81 | 1016.5 |
| 20260901154051 | 85 | 43 | 4.0 | 7.0 | 0.00 | 0.02 | 0.02 | 82 | 1016.5 |
| 20260901153527 | 84 | 34 | 2.0 | 6.0 | 0.00 | 0.02 | 0.02 | 79 | 1016.5 |
| 20260901153034 | 84 | 359 | 2.0 | 7.0 | 0.00 | 0.02 | 0.02 | 81 | 1016.5 |
| 20260901152531 | 84 | 5 | 3.0 | 7.0 | 0.00 | 0.02 | 0.02 | 81 | 1016.5 |
| 20260901152048 | 84 | 24 | 3.0 | 5.0 | 0.00 | 0.02 | 0.02 | 82 | 1016.5 |
| 20260901151522 | 84 | 36 | 2.0 | 7.0 | 0.00 | 0.02 | 0.02 | 81 | 1016.4 |
| 20260901151032 | 84 | 40 | 1.0 | 7.0 | 0.00 | 0.02 | 0.02 | 83 | 1016.4 |
| 20260901150547 | 83 | 38 | 1.0 | 5.0 | 0.00 | 0.02 | 0.02 | 84 | 1016.4 |
| 20260901150022 | 83 | 30 | 1.0 | 5.0 | 0.00 | 0.02 | 0.02 | 84 | 1016.4 |
| 20260901145558 | 83 | 18 | 1.0 | 4.0 | 0.00 | 0.02 | 0.02 | 87 | 1016.4 |
| 20260901145032 | 83 | 15 | 2.0 | 4.0 | 0.00 | 0.02 | 0.02 | 87 | 1016.4 |
| 20260901144529 | 83 | 21 | 1.0 | 6.0 | 0.00 | 0.02 | 0.02 | 90 | 1016.3 |
| 20260901144025 | 82 | 32 | 2.0 | 5.0 | 0.00 | 0.02 | 0.02 | 92 | 1016.3 |
| 20260901143529 | 82 | 353 | 2.0 | 5.0 | 0.00 | 0.02 | 0.02 | 94 | 1016.3 |
| 20260901143025 | 82 | 23 | 2.0 | 6.0 | 0.00 | 0.02 | 0.02 | 96 | 1016.3 |
| 20260901142533 | 82 | 41 | 1.0 | 6.0 | 0.00 | 0.02 | 0.02 | 98 | 1016.3 |
| 20260901142030 | 81 | 359 | 2.0 | 5.0 | 0.00 | 0.02 | 0.02 | 100 | 1016.3 |
| 20260901141526 | 81 | 14 | 1.0 | 3.0 | 0.00 | 0.02 | 0.02 | 100 | 1016.0 |
| 20260901141054 | 81 | 17 | 1.0 | 5.0 | 0.00 | 0.02 | 0.02 | 100 | 1016.0 |
| 20260901140548 | 81 | 39 | 2.0 | 5.0 | 0.00 | 0.02 | 0.02 | 100 | 1016.0 |
| 20260901140034 | 81 | 27 | 1.0 | 4.0 | 0.00 | 0.02 | 0.02 | 100 | 1016.0 |
| 20260901135531 | 81 | 38 | 0.0 | 5.0 | 0.00 | 0.02 | 0.02 | 100 | 1016.0 |
| 20260901135026 | 80 | 27 | 1.0 | 5.0 | 0.00 | 0.02 | 0.02 | 100 | 1016.0 |
| 20260901134542 | 80 | 49 | 2.0 | 3.0 | 0.00 | 0.02 | 0.02 | 100 | 1015.9 |
| 20260901134036 | 80 | 26 | 2.0 | 3.0 | 0.00 | 0.02 | 0.02 | 100 | 1015.9 |
| 20260901133531 | 80 | 36 | 1.0 | 4.0 | 0.00 | 0.02 | 0.02 | 100 | 1015.9 |
| 20260901133026 | 80 | 65 | 1.0 | 4.0 | 0.00 | 0.02 | 0.02 | 100 | 1015.9 |
| 20260901132532 | 80 | 15 | 1.0 | 3.0 | 0.00 | 0.02 | 0.02 | 100 | 1015.9 |
| 20260901132026 | 80 | 342 | 1.0 | 4.0 | 0.00 | 0.02 | 0.02 | 100 | 1015.9 |
| 20260901131543 | 80 | 328 | 3.0 | 4.0 | 0.01 | 0.02 | 0.02 | 100 | 1015.9 |
| 20260901131039 | 80 | 360 | 1.0 | 3.0 | 0.01 | 0.02 | 0.02 | 100 | 1015.9 |
| 20260901130532 | 80 | 23 | 2.0 | 3.0 | 0.01 | 0.02 | 0.02 | 100 | 1015.9 |
| 20260901130027 | 80 | 349 | 1.0 | 2.0 | 0.01 | 0.02 | 0.02 | 100 | 1015.8 |
| 20260901125523 | 80 | 349 | 0.0 | 4.0 | 0.01 | 0.02 | 0.02 | 100 | 1015.8 |
| 20260901125032 | 79 | 311 | 1.0 | 4.0 | 0.01 | 0.02 | 0.02 | 100 | 1015.8 |
| 20260901124529 | 79 | 324 | 1.0 | 2.0 | 0.01 | 0.02 | 0.02 | 100 | 1015.8 |
| 20260901124025 | 79 | 324 | 1.0 | 3.0 | 0.01 | 0.02 | 0.02 | 100 | 1015.8 |
| 20260901123532 | 79 | 324 | 1.0 | 3.0 | 0.01 | 0.02 | 0.02 | 100 | 1015.8 |
| 20260901123049 | 79 | 340 | 1.0 | 3.0 | 0.01 | 0.02 | 0.02 | 100 | 1015.6 |
| 20260901122524 | 78 | 356 | 0.0 | 2.0 | 0.01 | 0.02 | 0.02 | 100 | 1015.6 |
| 20260901122036 | 78 | 360 | 1.0 | 2.0 | 0.01 | 0.02 | 0.02 | 100 | 1015.6 |
| 20260901121533 | 78 | 334 | 0.0 | 2.0 | 0.00 | 0.01 | 0.01 | 100 | 1015.4 |
| 20260901121028 | 77 | 338 | 0.0 | 2.0 | 0.00 | 0.01 | 0.01 | 100 | 1015.4 |
| 20260901120537 | 77 | 338 | 0.0 | 3.0 | 0.00 | 0.01 | 0.01 | 100 | 1015.4 |
| 20260901120030 | 77 | 323 | 1.0 | 3.0 | 0.00 | 0.01 | 0.01 | 100 | 1015.3 |
| 20260901115527 | 77 | 322 | 2.0 | 3.0 | 0.00 | 0.01 | 0.01 | 100 | 1015.3 |
| 20260901115035 | 77 | 272 | 1.0 | 2.0 | 0.00 | 0.01 | 0.01 | 100 | 1015.3 |
| 20260901114530 | 76 | 271 | 1.0 | 2.0 | 0.00 | 0.01 | 0.01 | 100 | 1015.1 |
| 20260901114026 | 76 | 271 | 0.0 | 2.0 | 0.00 | 0.01 | 0.01 | 100 | 1015.1 |
| 20260901113554 | 76 | 224 | 0.0 | 0.0 | 0.00 | 0.01 | 0.01 | 100 | 1015.1 |
| 20260901113030 | 76 | 224 | 0.0 | 0.0 | 0.00 | 0.01 | 0.01 | 100 | 1014.8 |
| 20260901112533 | 76 | 224 | 0.0 | 0.0 | 0.00 | 0.01 | 0.01 | 100 | 1014.8 |
| 20260901112026 | 76 | 224 | 0.0 | 0.0 | 0.00 | 0.01 | 0.01 | 100 | 1014.8 |
| 20260901111531 | 76 | 224 | 0.0 | 0.0 | 0.00 | 0.01 | 0.01 | 100 | 1014.6 |
| 20260901111027 | 76 | 224 | 0.0 | 0.0 | 0.00 | 0.01 | 0.01 | 100 | 1014.6 |
| 20260901110522 | 76 | 224 | 0.0 | 0.0 | 0.00 | 0.01 | 0.01 | 100 | 1014.6 |
| 20260901110100 | 76 | 224 | 0.0 | 0.0 | 0.00 | 0.01 | 0.01 | 100 | 1014.7 |
| 20260901105551 | 76 | 224 | 0.0 | 0.0 | 0.00 | 0.01 | 0.01 | 100 | 1014.7 |
| 20260901105024 | 76 | 224 | 0.0 | 0.0 | 0.00 | 0.01 | 0.01 | 100 | 1014.7 |
| 20260901104533 | 76 | 224 | 0.0 | 0.0 | 0.00 | 0.01 | 0.01 | 100 | 1014.5 |
| 20260901104029 | 76 | 224 | 0.0 | 0.0 | 0.00 | 0.01 | 0.01 | 100 | 1014.5 |
| 20260901103525 | 76 | 224 | 0.0 | 0.0 | 0.00 | 0.01 | 0.01 | 100 | 1014.5 |
| 20260901103022 | 76 | 224 | 0.0 | 0.0 | 0.00 | 0.01 | 0.01 | 100 | 1014.5 |
| 20260901102531 | 76 | 224 | 0.0 | 0.0 | 0.00 | 0.01 | 0.01 | 100 | 1014.5 |
| 20260901102027 | 76 | 224 | 0.0 | 0.0 | 0.00 | 0.01 | 0.01 | 100 | 1014.5 |
| 20260901101535 | 76 | 224 | 0.0 | 0.0 | 0.00 | 0.01 | 0.01 | 100 | 1014.5 |
| 20260901101052 | 76 | 224 | 0.0 | 0.0 | 0.00 | 0.01 | 0.01 | 100 | 1014.5 |
| 20260901100527 | 76 | 224 | 0.0 | 0.0 | 0.00 | 0.01 | 0.01 | 100 | 1014.5 |
| 20260901100043 | 76 | 224 | 0.0 | 0.0 | 0.00 | 0.01 | 0.01 | 100 | 1014.4 |
| 20260901095534 | 76 | 224 | 0.0 | 0.0 | 0.00 | 0.01 | 0.01 | 100 | 1014.4 |
| 20260901095030 | 76 | 224 | 0.0 | 0.0 | 0.00 | 0.01 | 0.01 | 100 | 1014.4 |
| 20260901094547 | 76 | 224 | 0.0 | 0.0 | 0.00 | 0.01 | 0.01 | 100 | 1014.4 |
| 20260901094035 | 76 | 224 | 0.0 | 0.0 | 0.00 | 0.01 | 0.01 | 100 | 1014.4 |
| 20260901093529 | 76 | 224 | 0.0 | 0.0 | 0.00 | 0.01 | 0.01 | 100 | 1014.4 |
| 20260901093025 | 76 | 224 | 0.0 | 0.0 | 0.00 | 0.01 | 0.01 | 100 | 1014.5 |
| 20260901092522 | 76 | 224 | 0.0 | 0.0 | 0.00 | 0.01 | 0.01 | 100 | 1014.5 |
| 20260901092037 | 76 | 224 | 0.0 | 0.0 | 0.00 | 0.01 | 0.01 | 100 | 1014.5 |
| 20260901091532 | 76 | 224 | 0.0 | 0.0 | 0.00 | 0.01 | 0.01 | 100 | 1014.6 |
| 20260901091029 | 76 | 224 | 0.0 | 0.0 | 0.00 | 0.01 | 0.01 | 100 | 1014.6 |
| 20260901090533 | 77 | 224 | 0.0 | 0.0 | 0.00 | 0.01 | 0.01 | 100 | 1014.6 |
| 20260901090026 | 77 | 224 | 0.0 | 0.0 | 0.00 | 0.01 | 0.01 | 100 | 1014.4 |
| 20260901085522 | 77 | 224 | 0.0 | 0.0 | 0.00 | 0.01 | 0.01 | 100 | 1014.4 |
| 20260901085030 | 77 | 224 | 0.0 | 0.0 | 0.00 | 0.01 | 0.01 | 100 | 1014.4 |
| 20260901084545 | 77 | 224 | 0.0 | 0.0 | 0.00 | 0.01 | 0.01 | 100 | 1014.4 |
| 20260901084031 | 77 | 224 | 0.0 | 0.0 | 0.00 | 0.01 | 0.01 | 100 | 1014.4 |
| 20260901083526 | 77 | 224 | 0.0 | 0.0 | 0.00 | 0.01 | 0.01 | 100 | 1014.4 |
| 20260901083035 | 77 | 224 | 0.0 | 0.0 | 0.00 | 0.01 | 0.01 | 100 | 1014.4 |
| 20260901082531 | 77 | 224 | 0.0 | 0.0 | 0.00 | 0.01 | 0.01 | 100 | 1014.4 |
| 20260901082025 | 77 | 224 | 0.0 | 1.0 | 0.00 | 0.01 | 0.01 | 100 | 1014.4 |
| 20260901081534 | 77 | 224 | 0.0 | 1.0 | 0.00 | 0.01 | 0.01 | 100 | 1014.6 |
| 20260901081031 | 77 | 224 | 0.0 | 2.0 | 0.00 | 0.01 | 0.01 | 100 | 1014.6 |
| 20260901080527 | 77 | 224 | 0.0 | 2.0 | 0.00 | 0.01 | 0.01 | 100 | 1014.6 |
| 20260901080035 | 77 | 224 | 1.0 | 2.0 | 0.00 | 0.01 | 0.01 | 100 | 1014.8 |
| 20260901075532 | 77 | 224 | 0.0 | 1.0 | 0.00 | 0.01 | 0.01 | 100 | 1014.8 |
| 20260901075027 | 77 | 224 | 0.0 | 1.0 | 0.00 | 0.01 | 0.01 | 100 | 1014.8 |
| 20260901074535 | 78 | 224 | 0.0 | 1.0 | 0.00 | 0.01 | 0.01 | 100 | 1014.8 |
| 20260901074031 | 78 | 224 | 0.0 | 1.0 | 0.00 | 0.01 | 0.01 | 100 | 1014.8 |
| 20260901073527 | 78 | 224 | 0.0 | 1.0 | 0.00 | 0.01 | 0.01 | 100 | 1014.8 |
| 20260901073037 | 78 | 224 | 0.0 | 1.0 | 0.00 | 0.01 | 0.01 | 100 | 1014.8 |
| 20260901072533 | 78 | 224 | 0.0 | 1.0 | 0.00 | 0.01 | 0.01 | 100 | 1014.8 |
| 20260901072029 | 78 | 224 | 0.0 | 1.0 | 0.00 | 0.01 | 0.01 | 100 | 1014.8 |
| 20260901071526 | 78 | 224 | 0.0 | 1.0 | 0.00 | 0.01 | 0.01 | 100 | 1014.8 |
| 20260901071035 | 78 | 224 | 0.0 | 1.0 | 0.00 | 0.01 | 0.01 | 100 | 1014.8 |
| 20260901070530 | 78 | 224 | 1.0 | 1.0 | 0.00 | 0.01 | 0.01 | 100 | 1014.8 |
| 20260901070023 | 78 | 224 | 0.0 | 2.0 | 0.00 | 0.01 | 0.01 | 100 | 1015.1 |
| 20260901065552 | 78 | 224 | 0.0 | 2.0 | 0.00 | 0.01 | 0.01 | 100 | 1015.1 |
| 20260901065027 | 78 | 224 | 0.0 | 1.0 | 0.00 | 0.01 | 0.01 | 100 | 1015.1 |
| 20260901064523 | 78 | 224 | 0.0 | 1.0 | 0.00 | 0.01 | 0.01 | 100 | 1015.3 |
| 20260901064028 | 78 | 224 | 0.0 | 3.0 | 0.00 | 0.01 | 0.01 | 100 | 1015.3 |
| 20260901063525 | 78 | 224 | 0.0 | 3.0 | 0.00 | 0.01 | 0.01 | 100 | 1015.3 |
| 20260901063033 | 79 | 200 | 0.0 | 3.0 | 0.00 | 0.01 | 0.01 | 100 | 1015.4 |
| 20260901062529 | 79 | 211 | 0.0 | 1.0 | 0.00 | 0.06 | 0.01 | 100 | 1015.4 |
| 20260901062044 | 79 | 211 | 0.0 | 0.0 | 0.00 | 0.06 | 0.01 | 100 | 1015.4 |
| 20260901061532 | 79 | 211 | 0.0 | 0.0 | 0.00 | 0.06 | 0.01 | 100 | 1015.3 |
| 20260901061029 | 79 | 211 | 0.0 | 0.0 | 0.00 | 0.06 | 0.01 | 100 | 1015.3 |
| 20260901060555 | 79 | 211 | 0.0 | 2.0 | 0.00 | 0.06 | 0.01 | 100 | 1015.3 |
| 20260901060029 | 79 | 211 | 1.0 | 2.0 | 0.01 | 0.06 | 0.01 | 100 | 1015.5 |
| 20260901055537 | 79 | 39 | 0.0 | 0.0 | 0.01 | 0.06 | 0.01 | 100 | 1015.5 |
| 20260901055033 | 79 | 39 | 0.0 | 0.0 | 0.01 | 0.06 | 0.01 | 100 | 1015.5 |
| 20260901054529 | 79 | 39 | 0.0 | 0.0 | 0.01 | 0.06 | 0.01 | 100 | 1015.8 |
| 20260901054036 | 79 | 39 | 0.0 | 0.0 | 0.01 | 0.06 | 0.01 | 100 | 1015.8 |
| 20260901053528 | 79 | 39 | 0.0 | 0.0 | 0.01 | 0.06 | 0.01 | 100 | 1015.8 |
| 20260901053022 | 79 | 39 | 0.0 | 0.0 | 0.01 | 0.06 | 0.01 | 100 | 1015.8 |
| 20260901052536 | 79 | 39 | 0.0 | 0.0 | 0.01 | 0.06 | 0.01 | 100 | 1015.8 |
| 20260901052032 | 79 | 39 | 0.0 | 0.0 | 0.01 | 0.06 | 0.01 | 100 | 1015.8 |
| 20260901051526 | 80 | 39 | 0.0 | 0.0 | 0.01 | 0.06 | 0.01 | 100 | 1015.9 |
| 20260901051026 | 80 | 39 | 0.0 | 0.0 | 0.01 | 0.06 | 0.01 | 100 | 1015.9 |
| 20260901050534 | 80 | 39 | 0.0 | 0.0 | 0.01 | 0.06 | 0.01 | 100 | 1015.9 |
| 20260901050051 | 80 | 39 | 0.0 | 0.0 | 0.00 | 0.05 | 0.00 | 100 | 1016.2 |
| 20260901045526 | 80 | 39 | 0.0 | 0.0 | 0.00 | 0.05 | 0.00 | 100 | 1016.2 |
| 20260901045030 | 80 | 39 | 0.0 | 0.0 | 0.00 | 0.05 | 0.00 | 100 | 1016.2 |
| 20260901044526 | 80 | 39 | 0.0 | 0.0 | 0.00 | 0.05 | 0.00 | 100 | 1016.3 |